STARLINK-3244 (49741 NORAD) Tracking and Keplerian Element Data

This shows tracking and keplerian element data for the satellite.

Feedback or suggestion? Click here.




ElementValue
Catalog49741
NameSTARLINK-3244
Epoch Orbit130
Epoch Day140.58334491
Epoch Year2022
RAAN265.0592
Inclination53.2169
Eccentricity0.0002053
Argument of Perigee26.1468
Mean Anonmoly90.3992
Mean Motion15.0868366
Decay Rate0.00215259
L11 49741U 21115T 22140.58334491 .00215259 00000+0 13194-1 0 9993
L22 49741 53.2169 265.0592 0002053 26.1468 90.3992 15.08683660 1308

Live tracking and technical data element details for STARLINK-3244 (NORAD 49741). STARLINK-3244 can be tracked NOW for your location showing map with azimuth and elevation plus other details from your city location.

Track the satellite on the map from your city or location and see movement details for azimuth, elevation, latitude, longitude, range, height, and movement on the map or in text.







IsCatalogInMostPopularTable: catalog: 49741, numindb: 22
Update: records affected: 1



GetName: 49741 STARLINK-3244

Hit Count: updated at: Mon, 23 May 2022 20:35:30 GMT